Location: Arpaise
(41.0333°N, 14.7333°E)
Time: 22:08:22
(UTC+00:00)

Cosmos 846 Rocket - Pass Details

Date: 26 January 2021
Orbit: 948 x 991 km, 82.9° (Epoch: 06 March)

Event Time Altitude Azimuth Distance (km) Brightness Sun altitude
Rises 19:07:13 0° 225° (SW) 3,660 9.0 -33.2°
Reaches altitude 10° 19:10:20 10° 240° (WSW) 2,710 8.4 -33.8°
Maximum altitude 19:15:02 22° 290° (WNW) 1,964 7.6 -34.7°
Drops below altitude 10° 19:19:44 10° 340° (NNW) 2,700 8.1 -35.6°
Sets 19:22:52 0° 355° (N) 3,644 8.6 -36.2°
